Location: Ciserano
(45.5833°N, 9.6000°E)
Time: 02:05:27
(UTC+00:00)

FALCON 9 DEB - Pass Details

Date: 20 April 2021
Orbit: 369 x 385 km, 53.0° (Epoch: 10 May)

Event Time Altitude Azimuth Distance (km) Brightness Sun altitude
Exits shadow 02:00:57 28° 94° (E) 732 4.6 -22.4°
Drops below altitude 10° 02:02:39 10° 107° (ESE) 1,382 6.0 -22.2°
Sets 02:04:43 0° 112° (ESE) 2,235 7.0 -22.0°
